TimeHST,TemperatureF,Dew PointF,Humidity,Sea Level PressureIn,VisibilityMPH,Wind Direction,Wind SpeedMPH,Gust SpeedMPH,PrecipitationIn,Events,Conditions,WindDirDegrees,DateUTC
12:53 AM,70.0,66.9,90,30.03,5.0,South,8.1,-,0.01,Rain,Light Rain,190,2013-06-30 10:53:00
1:53 AM,70.0,66.9,90,30.02,10.0,SW,9.2,-,0.01,,Overcast,230,2013-06-30 11:53:00
2:53 AM,71.1,66.0,84,30.01,10.0,WSW,6.9,-,N/A,,Overcast,250,2013-06-30 12:53:00
3:08 AM,71.1,64.9,81,30.02,10.0,WSW,4.6,-,N/A,,Overcast,240,2013-06-30 13:08:00
3:23 AM,71.1,64.9,81,30.02,10.0,WSW,5.8,-,N/A,,Overcast,240,2013-06-30 13:23:00
3:53 AM,71.1,64.9,81,30.02,10.0,SW,5.8,-,N/A,,Overcast,230,2013-06-30 13:53:00
4:53 AM,71.1,64.0,78,30.02,10.0,WSW,5.8,-,N/A,,Overcast,240,2013-06-30 14:53:00
5:53 AM,70.0,64.0,81,30.03,10.0,WSW,4.6,-,N/A,,Overcast,240,2013-06-30 15:53:00
6:53 AM,71.1,64.9,81,30.05,10.0,SSW,3.5,-,N/A,,Mostly Cloudy,210,2013-06-30 16:53:00
7:53 AM,72.0,68.0,87,30.06,10.0,WSW,3.5,-,0.01,,Mostly Cloudy,250,2013-06-30 17:53:00
8:53 AM,75.9,66.9,74,30.07,10.0,WNW,5.8,-,0.00,,Mostly Cloudy,300,2013-06-30 18:53:00
9:53 AM,78.1,66.9,68,30.06,10.0,NNW,8.1,-,N/A,,Mostly Cloudy,340,2013-06-30 19:53:00
10:53 AM,80.1,66.9,64,30.05,10.0,Variable,6.9,-,N/A,,Mostly Cloudy,0,2013-06-30 20:53:00
11:53 AM,82.0,66.9,60,30.04,10.0,ENE,11.5,-,N/A,,Partly Cloudy,60,2013-06-30 21:53:00
12:53 PM,82.0,66.0,58,30.02,10.0,NNE,10.4,-,N/A,,Scattered Clouds,30,2013-06-30 22:53:00
1:53 PM,81.0,64.9,58,30.02,10.0,East,10.4,-,N/A,,Mostly Cloudy,80,2013-06-30 23:53:00
2:53 PM,82.0,64.9,56,30.01,10.0,ENE,10.4,-,N/A,,Scattered Clouds,60,2013-07-01 00:53:00
3:53 PM,82.9,64.0,53,29.99,10.0,NNE,6.9,-,N/A,,Partly Cloudy,20,2013-07-01 01:53:00
4:53 PM,81.0,64.0,56,30.00,10.0,North,8.1,-,N/A,,Clear,360,2013-07-01 02:53:00
5:53 PM,80.1,64.0,58,30.00,10.0,NNE,6.9,-,N/A,,Clear,20,2013-07-01 03:53:00
6:53 PM,77.0,64.0,64,30.01,10.0,North,6.9,-,N/A,,Clear,360,2013-07-01 04:53:00
7:53 PM,75.0,64.0,69,30.03,10.0,North,4.6,-,N/A,,Clear,350,2013-07-01 05:53:00
8:53 PM,75.0,63.0,66,30.04,10.0,NW,6.9,-,N/A,,Partly Cloudy,320,2013-07-01 06:53:00
9:53 PM,75.9,64.0,67,30.04,10.0,NW,8.1,-,N/A,,Partly Cloudy,320,2013-07-01 07:53:00
10:53 PM,72.0,62.1,71,30.04,10.0,West,4.6,-,0.00,,Overcast,260,2013-07-01 08:53:00
11:53 PM,70.0,61.0,73,30.03,10.0,WSW,6.9,-,0.00,,Scattered Clouds,240,2013-07-01 09:53:00